Location: DARK SKY Beskydy - Park tmavé oblohy, www.darkskybeskydy.cz
(49.4926°N, 18.5016°E)
Time: 18:58:24
(UTC+02:00)

PCSat - Pass Details

Date: 05 August 2024
Orbit: 781 x 793 km, 67.1° (Epoch: 08 September)

Event Time Altitude Azimuth Distance (km) Brightness Sun altitude
Rises 00:14:17 0° 317° (NW) 3,298 13.7 -23.1°
Reaches altitude 10° 00:18:08 10° 344° (NNW) 2,369 13.1 -23.2°
Maximum altitude 00:20:42 13° 12° (NNE) 2,143 12.7 -23.2°
Drops below altitude 10° 00:23:16 10° 41° (NE) 2,368 12.6 -23.3°
Sets 00:27:06 0° 68° (ENE) 3,296 13.0 -23.4°
